This is the latest recevied weather packets stored in our database for station/object N5KJT. If no packets are shown the sender has not sent any weather packets the latest 10 day(s).
| Time | Temp. | Humidity | Pressure | Rain* | Wind** | Luminosity | Snow |
|---|---|---|---|---|---|---|---|
| 1787630717 | 21.67° C | 44% | 1026.2 hPa | 0 mm | - | 0 W/m² | - |
| 1787630417 | 22.22° C | 41% | 1026.2 hPa | 0 mm | - | 0 W/m² | - |
| 1787630117 | 22.22° C | 45% | 1026.2 hPa | 0 mm | - | 0 W/m² | - |
| 1787629817 | 22.78° C | 43% | 1026.1 hPa | 0 mm | - | 0 W/m² | - |
| 1787629517 | 22.78° C | 38% | 1026.1 hPa | 0 mm | - | 0 W/m² | - |
| 1787629217 | 23.33° C | 39% | 1026 hPa | 0 mm | - | 0 W/m² | - |
| 1787628917 | 23.33° C | 39% | 1025.9 hPa | 0 mm | - | 0 W/m² | - |
| 1787628617 | 23.33° C | 37% | 1026 hPa | 0 mm | - | 0 W/m² | - |
| 1787628317 | 23.89° C | 36% | 1026 hPa | 0 mm | - | 0 W/m² | - |
| 1787628017 | 23.89° C | 36% | 1025.9 hPa | 0 mm | - | 0 W/m² | - |
| 1787627717 | 23.89° C | 36% | 1025.9 hPa | 0 mm | - | 0 W/m² | - |
| 1787627417 | 24.44° C | 36% | 1025.6 hPa | 0 mm | - | 0 W/m² | - |
| 1787627117 | 24.44° C | 34% | 1025.6 hPa | 0 mm | - | 0 W/m² | - |
| 1787626817 | 25° C | 33% | 1025.6 hPa | 0 mm | - | 0 W/m² | - |
| 1787626517 | 25° C | 34% | 1025.5 hPa | 0 mm | - | 0 W/m² | - |
| 1787626217 | 25.56° C | 34% | 1025.4 hPa | 0 mm | - | 0 W/m² | - |
| 1787625917 | 25.56° C | 33% | 1025.3 hPa | 0 mm | - | 0 W/m² | - |
| 1787625617 | 26.11° C | 33% | 1025.3 hPa | 0 mm | - | 0 W/m² | - |
| 1787625017 | 26.67° C | 31% | 1025.1 hPa | 0 mm | - | 0 W/m² | - |
| 1787624717 | 26.67° C | 30% | 1025 hPa | 0 mm | - | 0 W/m² | - |
| 1787624417 | 27.22° C | 30% | 1024.9 hPa | 0 mm | - | 0 W/m² | - |
| 1787624117 | 27.22° C | 29% | 1024.9 hPa | 0 mm | - | 0 W/m² | - |
| 1787623817 | 27.78° C | 28% | 1024.9 hPa | 0 mm | - | 0 W/m² | - |
| 1787623517 | 28.33° C | 28% | 1024.9 hPa | 0 mm | - | 0 W/m² | - |
| 1787623217 | 28.33° C | 27% | 1024.8 hPa | 0 mm | - | 0 W/m² | - |
* Rain latest hour (hover to see other rain measurements)
** Current wind speed in m/s (hover to see current wind gust speed)